Notices

What's New in latest Release from April 7th, 2021:

- Updated Glossary, including Speed of Maximum Gust, and Total Hourly Precipitation

- Updated national and regional climate services offices contacts and prices information

- Addition of station inventory lists for 1981-2010, 1971-2000, and 1961-1990 Normals.

If you haven't already, please take our survey and provide feedback about our website: https://eccc.sondage-survey.ca/f/LanguageSelection.aspx?s=442ca660-fcf1-47c0-95a9-59707d6fd709

Hourly Data Report for July 19, 2018

TORONTO CITY
ONTARIO
Current Station Operator: ECCC - MSC

43°40'00.000" N
79°24'00.000" W
112.50 m
6158355
71508
XTO

Download Data

Hourly Data (July 2018)
Hourly Data Report for July 19, 2018
TIME
LST
Temp Definition
°C
Dew Point Definition
°C
Rel Hum Definition
%
Precip. Amount Definition
mm

Wind Dir Definition
10's deg

Wind Spd Definition
km/h
Visibility Definition
km
Stn Press Definition
kPa
Hmdx Definition


Wind Chill Definition


Weather Definition


00:00 19.0 2.5 33 0.0 LegendMM LegendMM   100.42     LegendNANA
01:00 18.5 2.3 34 0.0 LegendMM LegendMM   100.43     LegendNANA
02:00 17.8 5.0 43 0.0 LegendMM LegendMM   100.40     LegendNANA
03:00 17.4 6.5 49 0.0 LegendMM LegendMM   100.43     LegendNANA
04:00 16.1 7.4 56 0.0 LegendMM LegendMM   100.46     LegendNANA
05:00 16.6 6.9 53 0.0 LegendMM LegendMM   100.52     LegendNANA
06:00 16.4 7.9 57 0.0 LegendMM LegendMM   100.52     LegendNANA
07:00 18.9 7.8 49 0.0 LegendMM LegendMM   100.53     LegendNANA
08:00 21.3 5.2 35 0.0 LegendMM LegendMM   100.58     LegendNANA
09:00 23.0 5.0 31 0.0 LegendMM LegendMM   100.58     LegendNANA
10:00 24.1 7.2 34 0.0 LegendMM LegendMM   100.57     LegendNANA
11:00 23.9 7.5 35 0.0 LegendMM LegendMM   100.56     LegendNANA
12:00 25.7 9.3 36 0.0 LegendMM LegendMM   100.56 27   LegendNANA
13:00 25.2 7.0 31 0.0 LegendMM LegendMM   100.51 25   LegendNANA
14:00 26.2 7.9 31 0.0 LegendMM LegendMM   100.47 27   LegendNANA
15:00 26.5 7.7 30 0.0 LegendMM LegendMM   100.44 27   LegendNANA
16:00 26.7 7.9 30 0.0 LegendMM LegendMM   100.40 27   LegendNANA
17:00 25.9 9.0 34 0.0 LegendMM LegendMM   100.37 27   LegendNANA
18:00 24.7 9.6 39 0.0 LegendMM LegendMM   100.37 26   LegendNANA
19:00 24.4 9.9 40 0.0 LegendMM LegendMM   100.35 26   LegendNANA
20:00 23.2 13.2 53 0.0 LegendMM LegendMM   100.36 26   LegendNANA
21:00 22.7 14.6 60 0.0 LegendMM LegendMM   100.38 26   LegendNANA
22:00 22.2 15.4 65 0.0 LegendMM LegendMM   100.37 26   LegendNANA
23:00 22.2 14.3 61 0.0 LegendMM LegendMM   100.37 26   LegendNANA

Notes on Data Quality.

Legend

  • E = Estimated
  • M = Missing
  • NA = Not Available*
  • [empty] = Indicates an unobserved value
Date modified: